Starlink 33688

operational
NORAD ID: 63483 Int'l Des: 2025-070 Owner: SPXS Country: US Constellation: starlink
LEOCIRCULAR

About Starlink 33688

Description loading...

Live Position

Loading 3D Globe...

Upcoming Passes

Altitude History

Altitude vs Time

uPlot chart will show altitude changes over time

Two-Line Element Set

1 63483U 25070Z 25312.78412103 .00041031 00000-0 14906-2 0 9998
2 63483 43.0025 222.7493 0007185 289.9283 70.0795 15.27596379 34482
Epoch: Nov 8, 2025 • Age: 33 hours

Current Status

Altitude 482.6 km
Velocity 7.63 km/s
Sub-Earth Point -18.67°S, 89.58°E
Launch Date Apr 6, 2025
Age 0.5 years
Type internet

Technical Details

Classification Payload
Mass 575.00 kg
Dry Mass 530.00 kg
Total Mass 575.00 kg
Length 0.30 m
Diameter 4.10 m
Span 29.00 m
Shape Box + pan
Manufacturer SPXS
Bus Type Starlink V2MO
Phase Status In Orbit
Owner/State SPXS/US

Large Constellations

Loading constellations...